Theta_e
284 284 284 284 284 283 283 283 284 284 284 284 284 285 286 285 283 281 279 279 279 280 281 281 281 282 282 281 281 281 281 280 281 281 280 280 280 280 282 284 285 286 287 287 287 288 288 289 289 290 290 291 291 292 293 293 292 293 293 294 295 296 296 297 298 298 298 298 299 299 300 300 300 301
283 284 283 284 283 283 283 283 283 283 283 283 283 283 283 284 283 283 281 280 280 280 281 281 281 281 280 280 281 280 280 279 280 281 280 280 280 280 281 282 283 284 285 286 287 288 288 288 289 289 289 290 291 292 291 291 292 293 293 294 295 295 296 296 297 296 296 297 298 298 299 299 300 300
283 282 282 282 283 282 282 283 282 282 282 282 282 282 283 281 283 283 282 280 280 281 279 280 281 281 280 280 279 280 280 279 279 280 279 279 279 279 280 281 282 283 284 285 286 287 287 288 289 289 289 290 290 291 291 291 291 292 292 293 294 295 295 295 295 295 296 296 297 297 298 298 299 300
282 282 281 282 282 282 282 282 282 282 282 282 282 282 282 281 281 282 281 281 279 280 280 280 279 280 279 279 278 279 279 279 278 279 279 279 279 279 279 280 281 282 283 284 285 287 287 288 288 288 288 289 289 289 290 290 290 290 291 293 293 294 293 294 294 294 294 295 295 296 296 297 297 298
281 282 281 281 281 281 281 281 281 281 281 281 281 281 281 281 280 280 280 280 278 278 279 280 279 278 278 278 278 278 278 278 279 278 279 279 279 279 279 280 280 281 282 284 285 286 287 288 288 288 288 288 288 289 289 289 289 290 291 291 291 292 293 293 293 293 293 294 294 295 295 296 296 297
281 281 281 280 280 281 281 281 280 280 280 280 280 280 280 280 279 280 280 280 279 277 276 276 278 277 278 276 278 276 277 277 278 278 278 279 279 279 279 280 280 281 282 284 285 286 286 286 287 287 287 287 287 288 289 289 289 290 290 290 290 290 291 291 291 292 291 293 294 294 295 295 296 296
280 280 280 280 280 280 280 280 280 280 279 280 279 279 280 279 279 279 280 280 278 278 276 277 275 276 276 276 276 277 277 277 277 277 278 278 279 279 280 280 280 281 282 283 284 285 285 285 285 286 286 286 287 287 288 288 288 289 289 289 289 289 289 290 290 291 291 292 293 294 294 294 295 295
280 280 280 280 279 279 279 279 279 279 279 279 279 279 279 279 279 279 279 279 279 278 276 275 275 276 275 276 276 276 277 277 277 277 278 278 278 279 280 280 280 281 282 283 283 284 284 284 284 285 285 286 286 287 287 288 288 288 288 288 288 288 288 288 288 289 289 291 292 293 293 294 294 294
280 280 280 280 279 278 278 278 278 278 277 278 278 278 278 278 278 277 278 277 277 276 276 274 274 275 275 275 276 276 275 276 277 277 277 278 278 279 280 280 280 281 282 282 282 282 283 283 283 284 285 285 286 286 286 287 287 287 287 286 286 287 287 288 288 288 289 289 290 291 292 293 293 294
280 280 280 280 279 278 278 277 277 277 277 277 277 277 277 277 277 276 276 276 275 275 275 274 273 274 274 274 275 276 276 275 276 277 278 278 278 278 278 279 280 280 280 280 280 281 281 282 282 283 283 284 285 285 285 285 286 285 284 284 285 286 286 287 288 288 289 289 289 290 291 292 293 293
280 280 280 280 279 278 278 278 277 277 276 276 276 276 276 276 275 275 275 275 274 274 273 273 273 273 274 275 274 276 277 276 276 275 276 276 278 278 278 277 279 279 279 280 281 281 281 281 281 281 282 283 283 283 284 284 284 283 283 283 284 285 286 287 287 288 288 289 289 289 290 290 292 292
280 280 280 280 279 279 279 279 278 277 276 276 275 276 275 275 274 274 273 273 273 273 272 272 272 273 273 274 275 276 276 275 275 276 276 275 276 276 278 278 277 278 279 278 279 280 280 280 280 280 280 280 281 281 281 281 281 281 282 282 284 285 286 286 287 287 287 288 288 289 289 289 290 291
280 280 280 280 279 279 280 280 279 278 278 275 274 274 274 273 273 273 272 272 272 272 272 272 273 273 273 274 274 274 274 274 275 277 277 275 275 276 276 277 278 278 278 278 279 278 278 277 277 277 277 278 278 279 279 280 280 280 281 283 284 285 286 286 286 287 287 288 288 288 289 289 289 289
279 279 279 279 280 280 280 280 280 280 280 279 276 274 273 273 272 271 271 271 271 271 271 271 272 271 272 273 274 275 276 277 277 276 275 274 275 276 275 276 278 279 278 277 276 276 277 276 275 276 276 277 278 278 278 278 279 280 282 283 284 285 285 286 286 287 287 287 288 288 289 289 289 289
278 278 278 278 279 279 280 280 281 281 281 280 279 278 277 276 273 271 270 271 271 271 271 272 272 272 272 274 275 276 276 277 276 275 276 275 275 274 273 273 277 280 277 275 273 273 276 275 274 275 276 277 277 278 278 279 280 281 282 283 284 284 285 286 286 286 286 287 287 287 288 288 288 289
278 277 277 277 277 278 278 279 279 280 281 280 279 278 278 278 278 277 273 271 271 271 271 271 272 273 273 274 275 276 276 275 275 276 276 275 274 273 274 274 273 278 277 274 272 272 275 275 275 274 275 276 277 277 278 279 280 281 282 283 283 283 284 284 285 285 285 286 286 286 287 287 288 288
278 277 276 276 276 277 279 278 278 279 279 280 280 279 279 279 279 278 278 278 274 274 273 272 272 274 275 275 275 277 276 277 275 275 274 275 275 275 274 274 274 276 276 273 271 270 273 274 274 273 275 276 276 276 277 278 279 281 281 282 282 283 284 284 284 285 285 285 286 286 286 286 286 286
278 277 276 275 275 276 277 277 277 278 278 278 278 277 277 277 277 279 279 278 278 277 275 274 273 276 277 276 277 278 278 276 275 274 274 275 275 274 273 274 274 274 274 271 271 269 272 274 273 272 274 276 275 276 277 278 279 280 280 281 282 282 283 283 284 284 284 285 285 285 285 285 285 286
277 277 276 275 275 275 276 277 277 277 277 277 276 276 276 276 276 277 277 277 277 276 276 276 276 277 278 278 277 277 277 277 277 277 276 275 273 273 273 272 272 272 274 273 271 267 272 273 272 272 274 275 275 276 276 277 278 279 280 280 281 282 282 282 283 283 283 284 284 284 284 285 285 285
277 277 275 275 275 275 276 278 280 279 277 276 275 275 275 275 276 277 279 280 279 278 278 278 278 278 278 279 277 278 278 278 278 274 273 272 269 268 268 268 269 269 272 273 270 268 269 272 271 272 274 274 273 274 275 276 277 278 279 280 280 280 281 281 281 282 282 283 283 283 284 284 284 284
276 276 275 275 275 275 275 278 281 281 279 275 275 274 274 275 275 276 278 281 282 281 281 281 281 280 280 280 280 280 281 280 275 272 271 271 269 267 266 267 267 268 271 271 271 269 268 271 271 271 272 272 272 273 274 275 276 277 277 278 279 279 280 280 280 281 282 282 283 283 283 284 283 282
275 275 277 276 275 275 275 279 281 282 279 275 274 274 274 274 273 275 276 277 279 282 281 281 281 280 280 281 281 281 280 280 277 271 269 269 268 267 266 265 267 267 269 271 273 269 268 271 271 270 270 271 272 273 274 274 275 275 275 276 277 278 278 279 280 280 281 281 282 282 282 282 282 279
275 275 276 277 276 276 276 280 282 282 279 275 275 274 274 272 272 273 275 275 275 276 277 277 278 278 280 276 274 275 276 275 274 272 270 269 268 266 266 266 265 265 267 271 273 268 268 269 269 269 266 267 270 271 273 273 273 273 273 274 274 276 277 278 279 280 280 280 280 281 281 281 281 278
274 274 274 277 279 279 279 280 282 282 281 276 275 275 274 273 272 274 274 275 275 275 276 276 276 274 273 273 272 271 271 271 271 271 270 270 268 266 266 265 265 265 267 272 273 269 268 269 267 269 267 264 264 269 271 270 272 272 273 273 273 275 276 276 276 277 278 279 279 280 280 281 280 277
273 273 273 275 278 280 280 281 283 283 282 278 276 275 274 274 275 276 273 275 276 274 274 274 273 272 271 270 271 271 270 270 270 270 271 270 270 268 266 265 265 265 267 270 272 270 266 268 266 267 266 267 266 266 268 270 271 271 272 273 272 273 274 274 275 274 276 277 278 278 279 279 280 277
273 273 274 274 277 280 280 281 283 283 282 280 275 275 277 278 278 275 274 274 275 273 273 272 270 269 268 268 267 267 268 268 268 269 269 270 270 270 270 268 266 265 266 270 272 269 267 266 266 265 266 265 265 267 266 267 270 271 272 273 273 273 274 273 273 273 274 274 274 275 276 279 280 280
273 274 274 275 278 280 281 282 283 284 283 279 275 278 279 279 279 277 273 273 273 271 271 270 269 268 268 267 266 266 266 267 268 268 269 269 270 270 270 270 270 269 270 270 270 269 268 266 267 266 264 265 264 265 266 265 267 271 271 272 272 273 273 273 272 273 273 273 273 277 278 278 279 279
274 274 274 275 278 281 281 282 283 284 283 278 278 279 280 280 279 274 272 271 270 269 268 268 269 268 267 267 266 266 266 267 268 269 269 269 269 269 269 269 269 269 269 269 269 269 268 267 266 267 267 265 264 263 263 267 268 269 269 271 271 272 272 272 272 272 272 273 272 273 273 273 273 273
275 276 277 278 279 281 281 282 283 283 283 280 280 280 280 279 276 272 271 270 269 268 268 268 268 268 266 267 267 267 268 268 269 268 268 268 267 267 267 267 267 267 268 268 268 269 268 268 267 267 267 267 266 266 266 265 267 267 269 268 267 270 271 272 271 271 271 272 272 272 272 272 272 273
278 278 278 279 280 281 281 280 280 280 281 281 280 280 280 277 271 271 270 269 268 268 268 268 267 266 266 266 267 267 268 267 266 266 264 264 264 264 264 264 264 265 266 267 268 269 269 269 268 268 267 267 267 266 267 266 266 268 268 268 268 269 270 271 271 271 271 271 271 271 272 272 272 273
276 277 277 277 279 280 281 281 281 280 281 280 280 278 277 271 270 270 269 269 269 268 267 267 266 265 265 266 266 265 265 264 264 265 263 263 263 263 264 263 263 264 265 267 268 269 269 269 269 269 267 267 267 267 268 268 266 266 267 268 268 265 268 270 270 270 271 271 271 271 271 272 272 274
276 276 278 278 278 279 279 279 278 278 278 276 272 270 269 269 268 269 272 271 270 269 267 266 265 264 264 263 263 263 263 263 263 264 263 263 262 263 263 262 262 263 264 265 266 268 268 269 269 269 269 268 266 267 268 267 266 266 266 267 268 268 269 269 269 270 271 271 270 270 270 271 271 271
275 275 275 275 275 276 276 274 273 271 269 268 268 267 266 267 267 267 268 267 266 265 264 263 263 262 261 260 262 261 261 261 262 263 262 262 262 262 263 262 262 262 262 263 265 266 267 268 269 269 269 269 269 268 266 264 265 266 266 266 267 267 268 270 270 270 271 270 268 269 269 270 271 271
274 274 273 274 274 274 272 271 270 270 268 265 265 265 267 266 266 266 266 265 264 263 263 263 262 261 261 260 260 260 260 260 261 262 263 262 263 262 262 261 262 262 263 263 264 265 266 267 268 268 268 268 268 268 267 265 264 265 266 267 267 266 268 269 270 270 270 269 268 267 267 268 270 271
273 273 272 272 273 272 271 270 269 268 267 265 264 264 265 265 266 265 264 264 262 262 262 261 261 260 260 260 261 260 260 260 261 261 262 262 262 261 261 261 261 262 263 263 264 265 266 266 266 265 265 265 265 266 270 268 265 265 266 267 267 267 267 269 269 269 269 269 269 267 267 268 268 270
273 273 272 272 272 271 270 269 269 268 267 265 265 264 263 263 264 264 262 263 262 262 261 260 260 260 260 260 260 260 260 260 260 261 261 261 261 261 261 261 262 262 263 264 264 266 266 266 265 263 262 262 261 261 263 271 270 267 265 265 267 267 268 268 268 269 268 268 269 268 266 266 267 270
273 273 272 272 271 270 270 270 269 268 267 266 265 264 264 263 262 262 262 263 261 261 260 260 260 260 260 260 260 260 260 260 259 261 260 261 261 261 260 261 262 263 263 264 265 266 266 265 265 263 262 261 260 259 261 266 269 271 268 266 266 267 267 267 267 266 268 268 268 268 267 267 267 269
272 272 272 271 271 270 270 270 268 267 266 265 264 263 264 263 261 261 262 261 260 260 261 260 260 260 259 260 259 259 259 260 260 260 260 260 260 260 260 261 261 263 263 264 265 266 266 265 264 263 262 260 259 259 260 263 265 267 271 268 265 266 267 266 265 265 266 268 268 269 269 268 268 269
273 272 271 270 270 270 269 268 267 266 266 264 264 263 263 261 261 261 261 260 260 260 260 260 259 259 259 259 259 259 259 259 259 259 259 260 260 260 260 261 262 263 264 264 265 265 265 264 264 263 263 262 260 261 262 261 262 265 268 271 268 266 266 266 265 266 266 266 268 269 270 271 272 274
272 272 271 270 270 270 269 268 267 266 265 264 264 263 262 260 260 260 260 259 259 259 259 258 259 259 258 258 258 259 259 259 258 259 259 259 260 261 261 262 262 263 263 263 263 264 264 264 264 264 264 264 265 265 265 265 265 265 266 267 271 269 268 268 266 266 266 267 268 267 266 268 267 269
271 270 270 270 269 269 267 266 265 265 263 263 262 262 261 260 260 259 259 258 258 258 257 258 258 258 258 258 258 258 257 258 259 259 259 260 260 261 262 263 263 264 263 262 263 263 263 265 266 268 266 266 266 266 264 261 261 262 264 266 269 271 272 272 269 268 266 268 267 266 265 265 265 266
270 270 270 269 268 267 266 265 264 263 261 261 261 260 259 259 258 261 260 260 258 257 257 257 258 258 258 257 257 258 257 258 259 259 260 260 260 261 262 263 262 263 263 262 262 263 265 266 266 265 265 264 263 261 260 260 260 262 263 265 266 270 271 272 272 272 270 268 267 265 265 265 267 265
269 269 267 266 266 265 265 264 263 261 260 260 259 259 258 258 259 260 259 258 257 257 257 257 257 257 257 256 256 257 257 258 258 259 259 260 260 261 262 263 263 263 263 263 264 264 264 265 265 264 264 263 262 262 260 261 261 262 263 263 264 266 267 270 271 272 273 273 273 271 268 267 265 262
268 266 265 265 264 264 264 262 260 260 259 259 258 258 257 257 258 259 259 258 257 256 256 256 256 256 255 256 256 256 257 257 258 258 259 260 261 262 262 262 263 263 263 263 263 263 264 264 264 264 262 262 262 262 261 261 261 262 263 263 264 264 264 265 267 269 271 272 272 273 273 273 273 272
265 264 264 263 263 263 261 260 259 259 258 258 257 257 257 258 258 258 257 257 257 256 255 255 255 255 255 255 256 256 257 259 260 260 261 262 262 262 262 262 262 262 262 263 262 262 263 263 263 263 262 262 263 262 262 262 262 262 262 262 262 263 264 264 264 264 265 266 269 271 272 273 273 273
Wind_Speed
10 8 10 8 7 7 5 5 5 5 4 4 5 6 9 7 4 3 4 6 5 5 6 5 4 4 4 4 3 3 2 1 1 2 3 4 5 9 13 14 15 15 15 14 14 13 12 12 12 12 12 11 12 12 13 13 14 15 16 16 17 16 16 17 17 16 17 18 18 19 20 21 21 22
8 8 8 7 6 6 6 6 6 6 6 6 5 5 2 4 7 6 5 4 5 5 6 4 4 5 5 3 3 3 2 0 2 2 3 4 5 11 13 13 14 14 14 14 13 12 12 11 11 11 11 11 12 13 13 14 15 15 16 16 16 16 16 16 16 17 17 18 18 19 20 21 21 22
9 10 10 8 7 7 7 6 6 5 6 6 5 4 4 3 4 4 3 2 4 4 9 5 3 6 6 3 2 2 1 1 2 3 3 4 7 12 11 13 14 14 14 13 12 11 11 10 11 11 12 12 13 14 14 15 15 16 15 15 15 16 16 17 17 18 18 19 19 20 20 21 22 23
9 10 11 10 9 8 7 7 7 7 6 6 6 6 6 5 4 4 4 4 4 4 4 6 5 6 6 4 4 4 3 3 6 3 3 5 8 7 6 10 13 13 13 12 11 11 11 11 12 12 13 14 14 14 15 15 15 15 15 15 16 17 17 18 18 18 18 19 19 20 20 21 22 23
10 10 11 10 9 9 10 8 7 7 7 6 5 5 6 6 5 6 7 6 6 2 2 5 6 5 4 4 6 4 3 3 3 4 4 5 5 6 6 6 9 11 12 12 12 11 11 12 13 13 13 14 14 15 15 15 15 15 15 16 17 18 18 18 19 19 20 20 21 22 22 22 24 25
9 10 11 10 10 11 10 9 9 8 9 8 8 7 8 7 7 6 7 6 6 7 6 5 4 4 5 4 5 3 3 3 3 4 4 4 5 5 6 6 6 10 12 13 13 12 12 13 13 13 13 13 14 14 15 15 15 15 15 16 17 17 18 18 20 21 21 22 23 23 24 25 24 25
10 11 11 11 10 8 10 10 9 9 9 8 8 9 7 8 7 7 6 6 6 9 7 6 6 6 5 5 5 3 3 4 4 5 4 4 4 4 5 5 5 8 11 12 12 12 13 13 13 13 13 13 14 16 16 16 16 16 16 17 17 17 18 19 19 20 21 23 24 24 24 24 25 26
13 14 12 11 12 11 11 11 10 9 9 10 9 9 8 8 8 8 7 6 4 5 7 6 5 4 4 3 3 2 3 4 4 4 5 5 5 5 5 6 6 7 12 12 12 12 12 13 13 13 14 14 16 17 18 18 18 17 17 18 18 19 19 19 20 20 20 22 23 24 25 26 26 26
14 14 15 13 13 13 12 11 11 11 13 11 10 10 9 9 8 7 8 7 5 5 6 5 3 3 2 2 2 3 3 3 3 4 5 5 6 6 7 6 6 10 14 14 15 15 14 13 13 13 14 16 18 19 19 19 18 18 19 19 20 20 21 21 20 20 21 21 22 24 25 26 27 27
14 14 14 13 14 15 15 14 12 13 15 12 11 11 10 9 8 9 8 7 6 5 4 5 4 3 3 2 2 2 3 3 3 3 4 5 6 6 7 6 6 6 6 6 7 10 11 11 13 14 15 18 19 18 18 18 18 18 18 19 20 21 21 21 21 21 22 22 23 24 25 25 27 29
13 12 12 13 15 16 15 14 15 14 13 12 14 12 11 10 10 9 8 8 7 6 5 4 4 3 3 3 2 2 3 4 4 4 4 5 3 4 6 8 7 6 7 11 15 13 11 12 11 13 17 19 18 18 17 17 17 17 17 19 20 20 20 21 21 22 23 24 24 25 25 26 27 28
12 13 12 12 14 15 15 14 14 15 15 12 12 10 9 11 11 9 9 8 7 6 6 4 5 3 3 3 3 3 3 4 5 6 5 5 4 3 5 7 8 7 7 8 7 8 9 9 12 14 16 17 17 16 15 15 16 16 17 18 18 19 20 21 22 23 24 24 25 26 26 27 27 28
11 11 11 11 12 16 15 15 15 17 15 13 11 10 11 11 9 8 7 8 7 6 5 5 4 4 4 5 5 6 7 8 6 5 6 5 4 5 6 8 9 9 7 6 6 6 6 8 8 8 9 9 11 11 12 12 14 15 16 17 19 20 21 21 22 23 24 25 26 27 27 28 29 30
9 11 10 11 13 16 17 18 21 23 23 19 14 15 14 13 10 9 9 9 8 8 8 7 7 6 7 7 8 8 8 7 6 6 6 6 6 6 7 9 8 7 7 6 6 8 7 8 8 8 9 8 7 6 6 7 10 13 17 18 19 20 21 22 23 24 25 26 27 27 27 28 30 31
10 10 9 8 12 15 16 16 22 23 24 22 20 20 22 20 19 15 10 9 10 10 8 7 8 8 7 9 8 9 8 8 7 6 6 6 5 6 6 6 4 6 5 3 6 9 8 7 8 7 8 7 6 6 7 11 15 16 17 18 19 20 21 23 24 24 25 26 27 27 27 28 29 30
9 10 10 8 8 10 12 12 16 20 22 23 22 23 23 23 21 19 17 14 10 9 9 9 10 8 9 8 9 9 9 8 7 8 8 8 7 7 7 7 6 3 2 5 8 10 7 6 7 7 7 6 6 7 9 14 15 15 15 17 19 21 22 24 24 25 26 26 26 27 27 27 29 30
10 10 10 10 9 9 18 14 13 14 16 21 22 22 23 22 22 19 17 17 14 13 9 10 10 11 9 9 9 10 9 7 8 8 8 8 7 7 7 8 7 7 4 6 8 8 7 5 5 6 8 7 6 6 9 12 13 14 16 18 19 20 21 23 24 24 25 25 26 27 29 30 30 31
11 12 11 11 10 10 14 12 14 14 14 15 15 16 15 14 17 18 18 17 15 13 10 10 10 10 10 9 9 10 9 9 9 8 8 7 7 6 8 9 10 9 5 7 7 7 5 3 6 8 7 5 6 6 9 12 14 15 17 18 18 18 19 20 21 23 25 26 27 28 30 32 31 31
10 12 10 11 11 13 14 12 16 15 15 14 14 14 13 12 13 13 14 13 12 11 9 10 9 10 10 10 9 8 8 9 8 8 6 4 2 3 5 7 8 7 6 6 5 4 3 5 7 8 7 6 6 6 8 12 14 14 14 14 15 17 19 21 23 24 26 27 28 29 30 31 32 32
8 10 11 11 12 11 11 19 26 20 14 16 16 16 13 11 10 10 12 14 13 10 9 10 9 9 10 10 8 9 8 8 6 5 4 4 3 1 3 6 4 5 4 5 5 5 5 6 7 8 6 7 7 6 6 9 10 11 12 13 15 18 22 24 24 25 27 27 27 28 30 31 32 33
12 10 12 11 11 11 12 21 27 26 21 15 16 15 15 13 11 9 11 17 19 18 17 15 16 15 15 15 15 15 15 10 7 3 2 5 1 1 3 5 4 5 5 5 5 5 6 5 8 11 6 6 9 8 4 4 5 7 9 14 19 22 23 23 23 24 25 26 27 28 29 31 31 35
7 10 21 17 15 11 12 24 27 28 22 16 16 16 15 13 11 9 7 7 11 18 17 16 16 16 14 15 17 16 13 12 7 3 5 3 3 4 4 4 3 5 6 5 1 2 6 7 7 10 10 7 5 4 4 2 3 7 11 15 18 19 21 22 23 23 24 27 28 29 30 29 30 23
5 8 15 23 18 11 16 27 28 29 21 13 15 15 15 13 14 10 10 11 10 9 9 11 12 12 12 5 6 6 6 4 2 3 3 3 4 5 4 3 1 3 3 3 4 4 5 6 7 8 12 5 2 4 1 3 6 9 10 10 11 16 20 22 23 25 26 26 26 27 28 29 27 18
6 7 7 17 23 22 23 25 28 29 27 12 8 11 14 14 12 10 11 11 9 8 7 7 7 5 5 5 4 3 3 2 3 3 4 5 5 5 4 3 4 4 3 2 5 5 6 3 6 5 3 7 8 1 7 9 11 9 8 10 11 13 15 18 17 21 23 23 26 26 28 29 27 18
9 8 9 8 21 24 25 27 28 30 28 19 13 11 11 12 11 13 11 13 15 7 7 8 5 5 4 4 3 2 2 3 3 4 5 6 7 6 5 5 5 7 7 7 6 4 4 4 8 6 5 5 9 12 10 10 9 11 10 9 11 11 12 13 13 14 16 24 25 26 27 27 30 22
7 9 8 8 19 28 27 28 29 30 28 24 13 12 14 16 20 13 10 10 9 9 8 8 6 5 4 3 3 3 3 5 5 5 6 6 7 6 6 6 6 5 5 4 4 5 5 7 5 6 6 6 11 8 14 14 11 9 11 12 10 12 11 12 14 16 14 13 14 15 19 29 31 31
9 8 11 13 24 28 30 29 30 30 30 24 14 22 21 20 22 16 10 9 9 9 8 9 9 7 5 5 5 4 5 5 6 6 6 6 6 6 5 6 6 6 6 5 5 6 6 7 5 6 9 8 11 13 12 12 13 14 15 12 11 11 12 12 14 15 14 15 15 25 27 28 30 31
9 9 9 13 25 28 29 30 31 29 27 17 24 25 24 24 20 11 10 9 9 8 8 9 9 8 4 4 4 5 5 5 6 6 5 5 5 5 4 5 5 5 6 6 6 7 7 8 8 7 8 9 10 11 14 13 12 13 16 17 16 13 12 14 13 13 14 14 15 15 19 18 15 17
10 12 20 23 27 28 30 32 30 26 27 25 26 27 26 22 10 11 11 11 10 11 11 11 7 7 5 6 5 5 5 6 5 4 3 2 2 2 3 5 5 6 5 5 7 8 8 8 9 7 7 8 9 11 11 15 15 16 14 18 18 15 13 15 17 16 15 14 14 15 15 18 21 16
18 21 23 26 27 27 24 20 17 14 15 23 27 27 25 12 11 11 11 11 12 12 11 9 9 5 4 4 5 5 5 4 4 3 2 2 3 3 3 3 4 4 6 6 7 8 8 8 9 8 9 9 9 11 11 14 16 15 16 16 17 19 17 12 15 16 15 16 16 18 19 17 19 18
14 17 19 16 20 17 24 23 17 15 16 18 18 16 12 9 11 11 11 13 12 9 7 8 5 4 4 4 5 5 5 4 3 3 3 3 3 2 2 4 5 4 3 6 6 7 7 8 8 9 9 10 10 10 11 11 16 18 18 15 14 15 16 16 17 18 17 17 16 19 19 19 16 16
14 15 18 19 15 14 14 14 11 11 10 9 7 9 10 10 10 12 13 10 7 8 7 5 5 4 5 6 6 4 4 3 3 3 3 2 2 2 3 3 4 3 5 3 5 6 8 8 9 9 10 10 12 12 10 12 15 16 18 18 16 16 16 15 18 17 18 20 20 16 19 17 19 18
11 11 13 12 13 12 12 10 9 8 9 8 9 11 10 10 10 10 10 11 10 9 8 7 6 6 5 4 3 4 3 3 2 2 2 3 3 3 3 4 5 6 6 5 4 4 5 7 9 11 10 11 13 14 14 17 16 15 15 15 15 17 17 14 15 17 17 16 20 23 22 22 17 16
13 14 14 14 14 13 10 11 11 10 10 10 9 8 8 9 10 9 8 8 8 7 6 6 7 6 5 5 5 5 3 2 2 2 3 3 3 3 4 5 6 6 6 6 5 5 4 5 6 8 9 10 11 12 11 13 18 14 11 11 13 15 17 15 16 17 19 17 17 23 23 20 19 19
14 14 14 14 14 14 13 13 13 12 12 11 11 10 10 9 10 9 8 8 7 7 7 6 5 5 6 5 5 4 3 2 2 2 3 3 3 4 4 5 6 6 6 6 5 5 5 6 8 11 12 10 10 10 16 16 12 15 13 13 11 13 15 14 15 17 18 20 19 18 17 26 25 16
13 13 13 13 13 13 13 13 12 13 13 11 11 11 10 10 8 10 9 8 8 8 6 6 6 6 6 5 5 4 3 3 3 3 2 3 3 4 5 6 6 7 6 6 5 5 5 6 7 9 13 14 13 15 5 18 18 11 12 16 14 13 13 14 18 17 20 20 16 17 23 22 21 21
15 13 13 13 12 13 14 14 14 13 13 12 11 10 10 11 8 6 7 10 7 8 7 6 6 7 7 6 5 5 5 4 3 3 3 3 4 4 5 6 6 6 7 6 6 6 6 7 6 7 10 12 15 15 16 5 11 13 11 13 17 17 15 15 19 23 20 16 21 22 18 20 27 23
14 13 12 12 13 13 12 12 12 13 13 12 12 11 10 10 7 8 8 7 7 7 8 8 8 7 7 7 6 5 5 4 3 3 4 4 4 5 5 6 6 6 7 7 6 5 5 6 6 6 7 10 13 16 19 14 5 6 10 10 15 19 19 18 21 21 20 20 19 18 20 25 21 27
14 14 14 13 13 13 13 12 12 12 12 12 12 13 13 10 8 9 9 8 8 9 8 8 8 8 8 7 5 5 6 5 5 4 4 4 5 5 5 6 7 7 7 8 6 5 4 4 5 6 8 10 13 15 16 20 22 15 10 17 15 16 19 21 20 20 22 23 18 24 20 22 27 36
13 12 12 12 12 12 11 11 11 11 12 11 12 12 13 11 9 8 8 9 9 9 7 8 8 7 6 5 7 6 5 5 5 5 5 5 4 5 6 6 7 7 8 9 8 7 7 6 5 6 7 11 13 14 16 18 21 20 18 18 22 19 17 15 18 21 22 21 24 18 27 24 19 21
10 11 11 11 12 12 11 10 10 10 12 12 11 10 12 9 9 7 7 7 7 9 9 8 8 8 7 7 7 6 5 4 5 5 5 5 5 6 7 8 7 7 8 10 9 9 8 6 7 15 15 12 12 11 14 16 17 16 15 13 13 20 23 22 21 19 21 24 20 25 23 25 25 26
11 11 10 9 11 10 9 10 10 12 14 14 13 12 11 9 9 11 10 11 8 7 7 8 8 8 7 5 6 6 5 5 5 5 5 4 5 6 8 7 7 7 8 10 11 11 9 7 7 8 7 8 9 11 15 15 18 17 17 16 15 19 23 25 26 25 22 21 21 20 26 26 20 20
10 10 9 8 8 9 9 9 11 15 17 14 13 10 10 9 9 9 8 8 8 8 8 7 6 6 5 5 5 6 5 5 5 5 5 5 6 6 6 6 7 7 9 10 11 9 9 8 5 6 7 7 8 9 15 16 17 18 18 17 19 17 17 19 22 27 30 33 31 27 23 20 20 26
10 10 9 9 9 9 10 12 15 16 16 12 13 11 10 9 9 9 9 10 9 8 7 6 5 5 5 6 7 5 6 5 5 5 5 6 6 6 6 7 7 8 8 10 12 10 9 8 6 6 8 8 7 10 13 14 18 17 18 19 19 16 20 18 16 18 22 27 29 32 34 34 33 35
10 10 10 9 9 10 12 14 16 17 17 15 11 10 9 8 9 9 8 8 7 7 5 5 5 5 6 6 6 5 6 6 6 6 6 6 5 6 6 6 7 7 9 9 11 12 9 8 7 6 7 8 7 9 12 14 16 16 21 19 19 18 18 17 18 20 16 15 16 22 31 34 35 36
Wind_Direction
179 185 181 187 176 179 173 177 176 166 159 165 170 180 178 180 183 172 200 204 188 184 200 198 172 170 168 159 153 165 185 182 323 339 331 320 319 321 316 314 318 318 319 321 324 328 329 329 328 327 326 325 321 320 321 319 317 315 315 314 315 316 317 318 320 321 318 314 310 308 306 304 302 301
177 178 179 183 180 172 176 180 169 169 167 161 173 182 161 168 195 189 194 170 182 155 187 212 176 176 175 170 185 190 220 201 327 315 312 315 315 310 306 308 308 309 313 315 320 323 322 319 320 321 321 317 316 318 318 318 317 316 314 315 316 318 321 322 321 319 316 313 312 310 307 305 304 303
174 178 180 182 180 167 176 167 169 171 170 173 167 170 154 177 211 179 203 165 183 168 178 196 207 172 173 175 194 238 262 278 271 290 302 303 299 294 295 294 298 303 306 307 312 317 314 315 318 320 320 320 321 320 320 318 316 315 316 317 321 324 326 325 323 319 317 315 313 312 311 309 306 304
185 178 184 182 176 169 169 173 174 176 178 166 170 169 171 170 175 178 193 216 154 189 175 162 167 169 169 176 202 216 222 226 235 269 273 272 270 272 269 267 274 284 292 300 309 314 316 319 322 322 322 322 321 318 315 313 312 315 320 324 326 326 325 324 322 319 316 314 312 310 309 308 307 307
186 188 184 180 179 166 172 174 170 174 171 169 171 167 171 176 177 178 186 193 138 142 162 153 168 171 181 212 192 197 211 220 229 235 253 257 259 261 259 259 258 276 291 303 310 314 317 318 318 320 322 319 315 311 308 307 311 317 322 324 325 325 323 321 318 316 314 312 310 310 308 308 307 305
189 183 183 182 177 178 175 169 175 171 171 175 171 182 181 182 181 186 180 199 161 160 167 183 183 193 196 200 181 198 222 240 238 251 252 252 258 272 283 290 295 296 305 312 310 308 311 316 320 319 316 312 308 304 304 307 311 317 321 322 322 320 318 316 314 314 312 311 311 310 310 309 306 306
179 183 191 184 171 168 176 178 175 170 176 173 179 180 183 184 183 183 200 172 184 163 172 172 183 195 191 197 177 218 245 250 254 260 253 256 260 260 268 277 275 274 293 298 301 306 312 314 311 310 309 307 305 304 308 314 318 320 322 322 320 317 315 313 312 312 312 312 311 311 309 308 307 306
183 188 180 184 174 172 174 175 175 179 173 176 180 179 186 185 180 185 185 212 179 171 157 184 187 175 182 197 211 229 259 273 282 284 290 282 275 273 268 264 269 269 292 299 305 308 307 303 303 305 307 308 307 308 314 318 321 323 324 323 321 317 313 312 311 311 312 311 311 311 310 308 307 304
184 184 191 175 170 174 175 175 179 177 178 178 176 180 181 184 180 174 189 187 179 166 176 156 173 178 213 226 257 264 278 289 285 286 285 291 290 288 284 284 277 293 308 312 309 305 299 298 301 305 311 311 310 313 316 318 320 322 324 323 320 317 314 313 313 312 313 312 311 310 309 307 306 305
189 189 187 175 176 176 180 181 177 174 179 174 177 177 177 176 170 177 180 180 175 175 171 162 173 188 208 226 229 235 246 263 285 289 285 281 282 292 300 297 301 305 313 315 301 286 284 287 297 308 311 308 307 310 313 315 317 320 320 317 315 314 314 314 315 313 312 311 311 310 308 305 303 304
191 191 187 183 182 184 184 174 176 174 172 175 180 179 173 168 168 173 175 174 171 175 168 178 186 189 208 219 250 223 223 245 253 274 291 292 280 289 297 304 311 307 292 282 277 276 283 294 301 304 303 300 301 304 306 309 311 314 312 310 309 310 311 311 311 312 312 311 310 309 307 304 304 303
192 195 193 189 187 186 185 179 175 169 172 169 172 174 165 168 168 171 168 167 170 170 174 178 180 183 188 217 234 254 223 231 238 229 240 260 280 279 271 264 274 273 258 256 255 259 270 284 290 292 288 287 290 294 298 299 301 303 305 304 304 306 307 308 309 309 309 308 307 307 305 304 304 303
199 195 195 192 189 193 192 186 178 180 171 160 164 169 167 168 168 162 163 165 161 164 164 175 174 183 200 207 201 207 207 209 208 200 207 243 261 269 269 261 249 250 250 242 237 256 273 287 285 281 278 275 279 281 282 289 291 293 298 302 303 304 305 305 305 305 305 305 305 305 304 303 302 301
202 198 193 196 186 189 186 181 181 182 182 185 176 164 167 169 162 168 164 168 170 164 171 182 175 181 204 200 200 203 209 202 203 207 217 229 234 239 258 265 255 234 229 241 262 269 267 266 269 259 258 263 263 269 273 272 283 290 295 298 300 301 301 302 304 306 305 304 304 303 302 301 300 299
193 195 192 181 184 186 185 184 180 181 183 181 182 181 176 171 168 166 170 174 168 170 171 170 177 190 197 203 198 203 199 198 201 214 215 220 222 226 232 248 242 210 183 260 277 276 263 249 254 250 253 256 256 257 260 273 284 292 297 299 300 301 302 305 307 308 306 304 303 301 300 300 300 299
183 184 182 182 180 183 181 172 179 183 183 181 180 180 182 184 186 179 167 162 167 171 164 175 189 181 197 192 193 200 198 198 201 210 217 220 220 226 230 241 248 189 93 291 283 276 264 243 249 254 253 254 257 257 268 280 286 290 293 297 300 303 306 306 306 305 305 303 302 302 301 300 299 298
186 180 179 180 184 182 180 177 178 174 180 182 180 180 183 188 189 193 190 175 162 166 170 175 179 189 179 187 200 200 195 191 204 208 222 224 224 226 235 250 265 267 290 285 268 264 260 246 250 265 264 253 253 256 262 272 282 291 297 297 297 302 305 305 305 305 303 303 302 301 301 299 298 297
185 184 180 178 179 176 180 179 177 175 172 174 174 178 181 185 191 191 186 180 171 170 171 168 179 182 180 189 193 196 190 198 208 213 223 227 218 219 244 266 273 278 273 262 278 270 248 230 286 272 265 252 256 252 256 274 290 294 294 297 301 303 307 307 305 303 304 304 302 300 298 298 297 295
187 183 180 179 177 174 181 179 175 170 172 171 175 177 179 180 184 186 185 181 176 173 178 182 177 182 185 191 192 189 198 207 218 231 225 180 182 250 281 276 260 271 258 251 260 262 255 285 275 269 273 276 268 269 270 277 290 295 295 301 306 308 311 310 306 303 302 300 299 299 298 297 296 295
185 180 176 179 183 174 182 185 183 179 167 173 175 176 177 176 180 188 189 182 176 173 179 189 189 190 185 181 197 199 200 209 198 122 124 126 128 166 272 278 283 267 257 253 263 268 272 280 283 283 281 282 283 279 273 271 277 294 306 311 315 315 308 303 301 302 300 298 298 297 297 298 297 296
188 181 181 177 179 179 185 185 186 183 173 173 174 173 175 178 178 182 183 187 184 187 195 192 191 184 190 198 203 204 204 206 143 129 175 237 152 202 257 267 258 269 302 282 257 265 282 299 311 299 285 289 289 285 261 265 276 293 307 312 311 308 303 299 298 297 298 298 298 299 298 296 298 297
185 182 187 187 188 183 179 186 187 184 176 174 174 172 171 172 178 178 160 165 185 194 200 202 205 204 195 202 208 214 218 213 164 138 211 175 155 218 216 240 257 299 298 283 294 268 284 320 319 310 302 290 236 235 277 285 315 316 303 301 299 299 299 297 294 293 296 297 297 297 297 297 299 298
177 185 194 192 191 179 179 187 189 187 179 174 175 174 170 176 179 177 160 167 165 181 190 203 203 207 204 159 112 125 147 152 156 179 206 196 196 223 218 214 248 288 264 203 9 335 306 336 322 350 335 326 219 208 114 354 315 306 310 303 296 292 296 295 292 292 294 292 293 296 296 298 299 293
188 186 182 195 195 189 185 190 192 192 186 175 162 169 180 177 176 158 163 167 162 178 181 187 185 166 119 146 133 134 163 188 199 223 220 208 198 207 214 193 203 222 263 214 353 319 302 306 313 346 327 306 312 285 325 319 315 306 298 302 298 298 300 298 295 293 290 289 290 290 295 300 297 289
189 184 187 179 193 188 185 190 192 194 190 180 178 181 179 181 164 154 160 166 172 173 183 183 161 154 134 126 147 178 191 217 221 219 214 205 206 199 194 200 208 229 252 270 292 303 300 316 302 308 284 274 278 303 304 314 304 309 304 293 294 301 304 303 301 294 286 288 288 288 289 289 294 286
186 183 173 166 188 192 188 192 192 192 190 182 178 180 167 156 160 156 150 154 162 174 181 185 175 164 143 147 160 202 213 216 213 209 213 210 212 216 206 203 214 228 254 252 287 303 297 289 278 298 291 295 291 289 306 309 307 300 303 299 288 288 295 299 298 294 293 288 289 288 291 293 295 288
187 174 184 185 188 192 192 191 193 192 186 180 175 175 170 170 162 151 150 153 158 169 177 183 192 184 171 183 194 205 215 216 205 205 209 207 207 216 221 230 233 241 259 278 284 278 274 271 277 279 289 293 295 302 297 301 311 317 305 298 298 298 299 294 286 285 285 288 289 289 285 279 290 286
177 176 175 184 190 193 193 193 195 194 186 176 175 176 176 172 164 142 144 151 158 161 169 187 196 198 182 179 200 209 214 213 205 201 201 205 212 220 232 233 246 259 273 276 274 269 264 267 273 262 268 285 292 295 301 295 293 299 304 304 302 300 301 297 289 285 285 284 282 293 303 294 286 291
192 179 183 185 189 191 192 193 193 194 187 174 175 177 174 171 154 147 153 158 159 177 187 196 192 196 188 196 205 209 204 201 201 195 208 221 249 273 271 262 260 264 258 257 255 257 258 259 268 268 268 264 269 278 284 289 299 298 300 303 303 307 304 295 291 285 282 278 278 282 278 286 287 284
180 184 186 185 189 191 190 190 192 190 187 178 176 177 175 168 149 149 155 159 170 187 191 187 190 183 170 189 199 199 200 201 204 192 210 231 247 226 240 268 261 227 230 244 250 254 256 260 265 271 275 267 260 269 278 290 292 291 293 286 289 295 289 283 285 290 288 285 284 290 287 286 291 287
175 182 182 184 190 190 190 189 187 184 184 186 181 178 167 135 151 155 162 169 173 173 166 178 176 153 169 175 179 198 201 206 205 203 212 236 255 251 270 284 285 296 239 216 242 250 260 266 267 275 279 278 275 264 275 280 285 290 287 283 289 284 289 293 286 285 287 286 289 292 288 285 279 278
169 170 179 182 188 189 190 187 187 185 182 176 145 137 132 142 143 151 149 144 161 168 161 136 133 144 166 183 196 199 208 210 201 207 221 238 269 276 293 291 280 289 299 262 233 244 251 261 270 273 274 277 282 287 287 280 273 274 280 286 282 274 273 278 284 286 292 296 291 286 282 277 287 287
163 165 171 174 180 188 191 180 173 152 136 128 138 132 133 140 143 143 150 162 167 156 148 160 163 163 164 178 185 198 207 214 204 216 228 262 253 278 263 262 277 291 296 299 291 260 239 248 252 263 271 277 278 281 288 288 276 271 270 270 274 277 280 273 276 280 289 289 288 294 297 291 285 283
165 175 174 179 180 179 171 169 169 165 151 140 139 146 130 138 143 150 152 152 148 136 142 156 162 168 159 177 184 195 195 211 198 233 222 243 246 257 272 274 277 280 276 278 285 275 265 251 253 254 253 252 256 251 250 260 274 276 266 263 261 271 279 285 283 286 295 286 291 294 290 286 280 285
175 177 180 182 182 179 170 169 169 161 160 158 150 149 152 153 154 153 155 151 130 135 159 158 156 156 174 178 181 175 190 181 210 202 235 242 254 250 256 267 275 278 279 285 288 288 285 289 301 306 303 291 279 254 210 217 250 264 278 269 263 271 279 285 289 294 294 291 292 282 277 288 286 287
185 185 182 182 181 174 175 174 165 163 162 157 155 148 152 163 161 161 158 146 145 157 150 148 161 175 182 180 175 175 178 189 214 226 247 246 247 262 259 257 266 270 273 276 281 287 294 300 316 316 315 313 315 310 306 191 205 242 271 289 289 280 281 287 291 290 290 287 283 282 286 284 285 289
182 185 186 182 179 177 178 172 169 168 163 160 159 160 159 160 160 138 134 140 147 161 158 151 172 176 175 176 174 175 182 183 198 220 238 268 260 258 267 266 265 268 276 273 280 289 301 309 311 312 308 306 307 299 285 187 197 233 270 282 292 291 293 297 300 297 290 283 286 284 277 282 286 287
185 182 182 181 177 176 175 174 170 169 166 162 159 156 158 156 130 137 139 139 152 155 163 169 175 172 175 174 171 178 178 193 195 212 234 246 250 259 264 269 278 276 278 277 281 290 301 304 302 298 294 290 296 295 300 301 277 230 232 269 281 289 296 295 294 290 289 291 290 285 288 284 284 289
183 180 181 175 175 173 174 174 172 173 164 162 165 163 159 146 134 145 154 156 159 166 167 168 172 172 173 177 177 173 172 176 193 215 227 241 244 253 263 270 275 274 283 288 290 291 296 289 280 280 280 280 279 285 291 297 294 291 260 260 268 275 280 286 287 290 292 296 297 295 282 280 280 283
184 176 175 172 173 172 172 168 173 171 165 165 165 164 155 143 143 143 142 160 164 169 166 172 170 168 174 176 177 177 176 190 206 222 222 233 244 249 257 262 269 279 286 288 292 292 297 286 269 268 272 276 278 279 283 281 284 281 278 268 256 259 271 281 284 290 292 293 298 297 296 297 296 290
170 174 176 173 168 168 166 165 165 165 165 159 151 146 139 121 134 139 145 148 147 162 170 171 173 173 175 173 173 169 176 196 204 219 226 233 242 249 256 268 278 282 287 288 289 292 290 284 266 281 283 282 279 281 283 282 279 282 283 278 267 268 270 276 279 282 284 291 297 296 291 296 300 300
171 172 167 161 164 159 156 159 161 159 137 141 144 130 131 127 130 146 149 155 156 161 162 170 175 174 170 145 162 173 180 192 200 211 225 229 243 253 259 263 272 282 286 290 291 293 292 283 273 271 266 271 279 291 283 283 285 288 288 293 289 283 280 279 277 274 278 283 290 292 294 295 294 288
163 158 154 145 140 149 158 154 156 151 140 136 127 128 124 127 147 150 155 156 162 170 174 173 166 159 163 158 171 181 183 197 207 215 225 234 237 246 252 266 273 279 279 282 286 283 286 281 261 266 261 258 264 267 279 280 284 287 290 293 296 301 292 282 279 281 280 280 279 277 279 284 296 294
150 140 132 137 140 152 156 153 139 129 129 130 132 128 129 139 152 155 161 163 166 173 170 163 164 169 172 175 179 183 197 202 208 216 226 231 238 246 262 271 274 275 279 285 288 284 284 280 274 275 279 273 266 274 273 279 286 289 290 292 298 296 296 300 291 274 268 265 271 281 279 279 277 277
134 132 133 140 146 146 144 128 129 133 127 124 129 128 134 140 152 158 159 164 163 158 160 168 168 174 180 177 177 186 201 207 211 219 227 237 251 261 264 263 268 268 277 282 289 290 287 281 279 264 263 264 263 265 273 276 280 291 296 296 294 291 293 298 299 301 289 293 262 273 290 289 287 285